User: anonymous   Login
Location: Limerick
(52.6800°N, 8.6400°W)
Time: 19:00:16
(UTC+01:00)
Language:

Sapphire - Orbit

View from above orbital plane
View from above orbital plane
View from above satellite
View from above satellite

Ground track
Ground track

The orbit data is extracted from the following two-line orbital elements,

1 26932U 01043D   15242.15046135  .00000010  00000-0  35775-4 0  9991
2 26932 067.0580 347.7496 0004134 270.4683 089.5944 14.30163193726412
Epoch (UTC): 30 August 2015 03:36:39
Eccentricity: 0.0004134
inclination: 67.0580°
perigee height: 788 km
apogee height: 794 km
right ascension of ascending node: 347.7496°
argument of perigee: 270.4683°
revolutions per day: 14.30163193
mean anomaly at epoch: 89.5944°
orbit number at epoch: 72641

The dashed part of the orbit path shows where the satellite is in the earth's shadow,  

DLR